• In Belarus
  • List of Countries
  • For 7 days
  • Water Temperature
  • Satellite Maps
  • Weather Map
  • Weather Widgets
  • user-avatar
    Login

    Hourly Weather Kuweit

    Today, 22 October, Monday

    Time Temperature Precipitation Wind Pressure Humidity
    00:00 +32°C° 0.1 mm 5 mps 759 mmHg 58%
    01:00 +32°C° 0 mm 5 mps 759 mmHg 61%
    02:00 +30°C° 0 mm 5 mps 759 mmHg 63%
    03:00 +29°C° 0 mm 4 mps 759 mmHg 64%
    04:00 +29°C° 0.6 mm 4 mps 759 mmHg 65%
    05:00 +29°C° 0.6 mm 4 mps 759 mmHg 66%
    06:00 +29°C° 0.6 mm 4 mps 759 mmHg 66%
    07:00 +32°C° 0.1 mm 5 mps 760 mmHg 58%
    08:00 +33°C° 0.1 mm 5 mps 760 mmHg 49%
    09:00 +35°C° 0 mm 5 mps 760 mmHg 41%
    10:00 +36°C° 0.1 mm 5 mps 760 mmHg 36%
    11:00 +37°C° 0.1 mm 5 mps 759 mmHg 30%
    12:00 +38°C° 0.1 mm 4 mps 759 mmHg 25%
    13:00 +38°C° 0 mm 4 mps 759 mmHg 25%
    14:00 +39°C° 0 mm 5 mps 758 mmHg 26%
    15:00 +39°C° 0 mm 5 mps 758 mmHg 26%
    16:00 +37°C° 0 mm 5 mps 758 mmHg 36%
    17:00 +35°C° 0 mm 6 mps 758 mmHg 46%
    18:00 +34°C° 0 mm 6 mps 758 mmHg 55%
    19:00 +33°C° 0.1 mm 6 mps 758 mmHg 58%
    20:00 +33°C° 0.1 mm 5 mps 758 mmHg 60%
    21:00 +33°C° 0.1 mm 5 mps 759 mmHg 62%
    22:00 +32°C° 0 mm 5 mps 759 mmHg 63%
    23:00 +32°C° 0 mm 4 mps 759 mmHg 64%

    Tomorrow, 23 October, Tuesday

    Time Temperature Precipitation Wind Pressure Humidity
    00:00 +31°C° 0 mm 3 mps 759 mmHg 64%
    01:00 +31°C° 0 mm 3 mps 759 mmHg 64%
    02:00 +30°C° 0 mm 2 mps 759 mmHg 64%
    03:00 +30°C° 0 mm 2 mps 759 mmHg 64%
    04:00 +29°C° 0 mm 1 mps 759 mmHg 64%
    05:00 +29°C° 0 mm 1 mps 759 mmHg 64%
    06:00 +29°C° 0 mm 1 mps 759 mmHg 64%
    07:00 +30°C° 0 mm 1 mps 759 mmHg 57%
    08:00 +32°C° 0 mm 1 mps 760 mmHg 50%
    09:00 +33°C° 0 mm 1 mps 760 mmHg 44%
    10:00 +34°C° 0 mm 1 mps 760 mmHg 40%
    11:00 +35°C° 0 mm 1 mps 760 mmHg 36%
    12:00 +36°C° 0 mm 1 mps 759 mmHg 32%
    13:00 +37°C° 0 mm 2 mps 759 mmHg 30%
    14:00 +38°C° 0 mm 3 mps 758 mmHg 28%
    15:00 +38°C° 0 mm 3 mps 758 mmHg 26%
    16:00 +37°C° 0 mm 3 mps 758 mmHg 29%
    17:00 +35°C° 0 mm 3 mps 758 mmHg 31%
    18:00 +34°C° 0 mm 3 mps 758 mmHg 34%
    19:00 +34°C° 0 mm 3 mps 758 mmHg 34%
    20:00 +33°C° 0 mm 3 mps 758 mmHg 34%
    21:00 +31°C° 0 mm 3 mps 759 mmHg 34%
    22:00 +31°C° 0 mm 3 mps 759 mmHg 32%
    23:00 +30°C° 0 mm 4 mps 758 mmHg 30%

    Day after tomorrow, 24 October, Wednesday

    Time Temperature Precipitation Wind Pressure Humidity
    00:00 +30°C° 0 mm 4 mps 758 mmHg 28%
    01:00 +29°C° 0 mm 4 mps 758 mmHg 29%
    02:00 +29°C° 0 mm 4 mps 758 mmHg 30%
    03:00 +29°C° 0 mm 5 mps 758 mmHg 32%
    04:00 +28°C° 0 mm 4 mps 758 mmHg 33%
    05:00 +28°C° 0 mm 4 mps 758 mmHg 35%
    06:00 +28°C° 0 mm 4 mps 758 mmHg 37%
    07:00 +29°C° 0 mm 3 mps 758 mmHg 35%
    08:00 +31°C° 0 mm 3 mps 759 mmHg 32%
    09:00 +32°C° 0 mm 2 mps 759 mmHg 30%
    10:00 +34°C° 0 mm 2 mps 758 mmHg 27%
    11:00 +34°C° 0 mm 1 mps 758 mmHg 23%
    12:00 +35°C° 0 mm 1 mps 757 mmHg 20%
    13:00 +36°C° 0 mm 1 mps 757 mmHg 19%
    14:00 +36°C° 0 mm 1 mps 756 mmHg 18%
    15:00 +37°C° 0 mm 1 mps 756 mmHg 16%
    16:00 +36°C° 0 mm 2 mps 756 mmHg 19%
    17:00 +35°C° 0 mm 2 mps 756 mmHg 21%
    18:00 +34°C° 0 mm 2 mps 756 mmHg 23%
    19:00 +32°C° 0 mm 2 mps 756 mmHg 25%
    20:00 +33°C° 0 mm 3 mps 757 mmHg 26%
    21:00 +33°C° 0 mm 3 mps 757 mmHg 27%
    22:00 +31°C° 0 mm 3 mps 757 mmHg 29%
    23:00 +31°C° 0 mm 3 mps 756 mmHg 30%

    25 October, Thursday

    Time Temperature Precipitation Wind Pressure Humidity
    00:00 +31°C° 0 mm 3 mps 756 mmHg 32%
    01:00 +30°C° 0 mm 3 mps 756 mmHg 33%
    02:00 +30°C° 0 mm 3 mps 756 mmHg 34%
    03:00 +30°C° 0 mm 3 mps 755 mmHg 34%
    04:00 +30°C° 0 mm 4 mps 756 mmHg 35%
    05:00 +30°C° 0 mm 4 mps 756 mmHg 35%
    06:00 +30°C° 0 mm 4 mps 756 mmHg 36%
    07:00 +33°C° 0 mm 5 mps 756 mmHg 32%
    08:00 +34°C° 0 mm 5 mps 757 mmHg 28%
    09:00 +36°C° 0 mm 6 mps 757 mmHg 24%
    10:00 +38°C° 0 mm 6 mps 757 mmHg 22%
    11:00 +40°C° 0 mm 6 mps 756 mmHg 19%
    12:00 +41°C° 0 mm 7 mps 755 mmHg 16%
    13:00 +43°C° 0 mm 7 mps 755 mmHg 16%
    14:00 +43°C° 0 mm 7 mps 754 mmHg 16%
    15:00 +42°C° 0 mm 6 mps 754 mmHg 16%
    16:00 +40°C° 0 mm 7 mps 754 mmHg 22%
    17:00 +39°C° 0 mm 7 mps 754 mmHg 27%
    18:00 +37°C° 0 mm 8 mps 754 mmHg 32%
    19:00 +37°C° 0 mm 8 mps 754 mmHg 35%
    20:00 +35°C° 0 mm 8 mps 755 mmHg 37%
    21:00 +35°C° 0 mm 8 mps 755 mmHg 40%
    22:00 +35°C° 0 mm 8 mps 755 mmHg 40%
    23:00 +35°C° 0 mm 7 mps 755 mmHg 40%

    26 October, Friday

    Time Temperature Precipitation Wind Pressure Humidity
    00:00 +34°C° 0 mm 7 mps 755 mmHg 40%
    01:00 +34°C° 0.1 mm 7 mps 755 mmHg 37%
    02:00 +34°C° 0.1 mm 6 mps 755 mmHg 35%
    03:00 +34°C° 0.1 mm 6 mps 755 mmHg 33%
    04:00 +34°C° 0 mm 6 mps 755 mmHg 31%
    05:00 +34°C° 0 mm 5 mps 756 mmHg 29%
    06:00 +34°C° 0 mm 5 mps 756 mmHg 28%
    07:00 +35°C° 0 mm 5 mps 756 mmHg 26%
    08:00 +38°C° 0 mm 6 mps 757 mmHg 24%
    09:00 +39°C° 0 mm 6 mps 757 mmHg 22%
    10:00 +40°C° 0.1 mm 6 mps 757 mmHg 21%
    11:00 +40°C° 0.1 mm 6 mps 757 mmHg 20%
    12:00 +41°C° 0.1 mm 6 mps 756 mmHg 19%
    13:00 +41°C° 0 mm 6 mps 756 mmHg 19%
    14:00 +41°C° 0 mm 5 mps 756 mmHg 18%
    15:00 +42°C° 0 mm 5 mps 755 mmHg 18%
    16:00 +40°C° 0 mm 5 mps 756 mmHg 20%
    17:00 +38°C° 0 mm 4 mps 756 mmHg 22%
    18:00 +37°C° 0 mm 4 mps 756 mmHg 23%
    19:00 +36°C° 0.1 mm 4 mps 757 mmHg 26%
    20:00 +35°C° 0.1 mm 4 mps 757 mmHg 28%
    21:00 +34°C° 0.1 mm 4 mps 758 mmHg 30%
    22:00 +33°C° 0 mm 4 mps 758 mmHg 31%
    23:00 +33°C° 0 mm 4 mps 758 mmHg 33%

    27 October, Saturday

    Time Temperature Precipitation Wind Pressure Humidity
    00:00 +33°C° 0 mm 4 mps 758 mmHg 34%
    01:00 +32°C° 0 mm 4 mps 758 mmHg 36%
    02:00 +32°C° 0 mm 4 mps 758 mmHg 38%
    03:00 +32°C° 0 mm 4 mps 758 mmHg 40%
    04:00 +30°C° 0.1 mm 6 mps 759 mmHg 41%
    05:00 +30°C° 0.1 mm 7 mps 760 mmHg 43%
    06:00 +31°C° 0.1 mm 9 mps 760 mmHg 44%
    07:00 +31°C° 0.2 mm 9 mps 761 mmHg 43%
    08:00 +32°C° 0.2 mm 9 mps 761 mmHg 42%
    09:00 +32°C° 0.2 mm 10 mps 762 mmHg 41%
    10:00 +33°C° 0.1 mm 9 mps 761 mmHg 40%
    11:00 +34°C° 0.1 mm 8 mps 761 mmHg 38%
    12:00 +34°C° 0.1 mm 7 mps 761 mmHg 37%
    13:00 +34°C° 0 mm 7 mps 760 mmHg 36%
    14:00 +35°C° 0 mm 7 mps 760 mmHg 35%
    15:00 +35°C° 0 mm 7 mps 760 mmHg 35%
    16:00 +34°C° 0 mm 6 mps 760 mmHg 36%
    17:00 +34°C° 0 mm 5 mps 760 mmHg 36%
    18:00 +33°C° 0 mm 5 mps 760 mmHg 37%
    19:00 +33°C° 0 mm 4 mps 761 mmHg 38%
    20:00 +32°C° 0 mm 4 mps 761 mmHg 38%
    21:00 +32°C° 0 mm 4 mps 761 mmHg 38%
    22:00 +30°C° 0 mm 4 mps 761 mmHg 37%
    23:00 +30°C° 0 mm 5 mps 761 mmHg 36%

    28 October, Sunday

    Time Temperature Precipitation Wind Pressure Humidity
    00:00 +30°C° 0 mm 6 mps 761 mmHg 34%
    01:00 +29°C° 0 mm 6 mps 761 mmHg 31%
    02:00 +28°C° 0 mm 7 mps 761 mmHg 27%
    03:00 +28°C° 0 mm 7 mps 761 mmHg 23%
    04:00 +27°C° 0 mm 7 mps 761 mmHg 23%
    05:00 +27°C° 0 mm 7 mps 762 mmHg 22%
    06:00 +27°C° 0 mm 6 mps 762 mmHg 21%
    07:00 +27°C° 0 mm 6 mps 762 mmHg 20%
    08:00 +28°C° 0 mm 6 mps 763 mmHg 18%
    09:00 +29°C° 0 mm 6 mps 763 mmHg 16%
    10:00 +30°C° 0 mm 6 mps 763 mmHg 15%
    11:00 +32°C° 0 mm 7 mps 763 mmHg 14%
    12:00 +33°C° 0 mm 7 mps 762 mmHg 13%
    13:00 +33°C° 0 mm 6 mps 762 mmHg 12%
    14:00 +33°C° 0 mm 6 mps 762 mmHg 12%
    15:00 +34°C° 0 mm 6 mps 761 mmHg 11%
    16:00 +33°C° 0 mm 6 mps 761 mmHg 11%
    17:00 +32°C° 0 mm 5 mps 761 mmHg 11%
    18:00 +32°C° 0 mm 5 mps 761 mmHg 11%
    19:00 +30°C° 0 mm 5 mps 761 mmHg 11%
    20:00 +30°C° 0 mm 5 mps 761 mmHg 11%
    21:00 +29°C° 0 mm 6 mps 761 mmHg 11%
    22:00 +28°C° 0 mm 6 mps 761 mmHg 12%
    23:00 +28°C° 0 mm 6 mps 761 mmHg 13%
    Show more